Spokane Fairchild, WA

5:22 AM PDT on October 17, 2017 (GMT -0700)
Fairchild Air Force Base

Weather History for KSKA - November, 2012

Change the Weather History Date:

Friday, November 2, 2012

  Actual Average Record
Temperature  
Mean Temperature 48 °F -  
Max Temperature 55 °F 44 °F 58 °F (2010)
Min Temperature 42 °F 28 °F 14 °F (2002)
Degree Days  
Heating Degree Days 16    
Moisture  
Dew Point 47 °F    
Average Humidity 96    
Maximum Humidity 100    
Minimum Humidity 72    
Precipitation  
Precipitation 0.00 in - - ()
Sea Level Pressure  
Sea Level Pressure 30.10 in    
Wind  
Wind Speed 6 mph (SE)    
Max Wind Speed 10 mph    
Max Gust Speed -    
Visibility 8 miles    
Events      
Averages and records for this station are not official NWS values.
T = Trace of Precipitation, MM = Missing Value Source: NWS Daily Summary

Daily Weather History Graph

Daily Weather History Graph

Search for Another Location

Airport or City:

Trip Planner

Search our weather history database for the weather conditions in past years. The results will help you decide how hot, cold, wet, or windy it might be!

Date:

Astronomy

Nov. 02, 2012 Rise Set
Actual Time 7:37 AM PDT 5:30 PM PDT
Civil Twilight 7:04 AM PDT 6:02 PM PDT
Nautical Twilight 6:28 AM PDT 6:39 PM PDT
Astronomical Twilight 5:52 AM PDT 7:15 PM PDT
Moon 8:13 PM PDT (11/2) 11:10 AM PDT (11/2)
Length of Visible Light 10h 58m
Length of Day
9h 53m
Waning Gibbous, 86% of the Moon is Illuminated
Nov 2
Waning Gibbous
Nov 6
Last Quarter
Nov 13
New
Nov 20
First Quarter
Nov 28
Full

Hourly Weather History & Observations

Time (PDT) Temp. Windchill Dew Point Humidity Pressure Visibility Wind Dir Wind Speed Gust Speed Precip Events Conditions
12:55 AM 43.5 °F 38.9 °F 43.5 °F 100% 30.06 in 6.0 mi South 8.1 mph - N/A   Overcast
1:11 AM 42.8 °F 38.6 °F 42.8 °F 100% 30.06 in 9.0 mi South 6.9 mph - N/A   Overcast
1:55 AM 43.3 °F 39.2 °F 43.3 °F 100% 30.07 in 10.0 mi SSE 6.9 mph - N/A   Overcast
2:55 AM 43.7 °F 41.1 °F 43.7 °F 100% 30.07 in 9.0 mi SE 4.6 mph - N/A   Overcast
3:55 AM 44.2 °F 41.0 °F 44.2 °F 100% 30.08 in 8.0 mi SSE 5.8 mph - N/A   Overcast
3:56 AM 44.6 °F 40.7 °F 44.6 °F 100% 30.08 in 7.0 mi SSE 6.9 mph - N/A   Overcast
4:20 AM 44.6 °F 42.2 °F 44.6 °F 100% 30.08 in 2.5 mi SE 4.6 mph - N/A   Overcast
4:22 AM 44.6 °F 42.2 °F 44.6 °F 100% 30.08 in 2.0 mi SE 4.6 mph - N/A   Overcast
4:24 AM 44.6 °F 42.2 °F 44.6 °F 100% 30.08 in 1.8 mi SE 4.6 mph - N/A   Overcast
4:28 AM 44.6 °F 42.2 °F 44.6 °F 100% 30.08 in 1.8 mi SE 4.6 mph - N/A   Overcast
4:30 AM 44.6 °F 41.4 °F 44.6 °F 100% 30.08 in 2.0 mi SE 5.8 mph - N/A   Overcast
4:36 AM 44.6 °F 42.2 °F 44.6 °F 100% 30.08 in 3.0 mi SE 4.6 mph - N/A   Overcast
4:55 AM 44.6 °F 41.4 °F 44.6 °F 100% 30.09 in 6.0 mi ESE 5.8 mph - 0.00 in   Overcast
4:59 AM 44.6 °F 43.1 °F 44.6 °F 100% 30.09 in 7.0 mi ESE 3.5 mph - N/A   Overcast
5:55 AM 45.0 °F 41.2 °F 45.0 °F 100% 30.11 in 10.0 mi SSE 6.9 mph - N/A   Overcast
5:58 AM 44.6 °F 40.7 °F 44.6 °F 100% 30.11 in 10.0 mi SSE 6.9 mph - N/A   Overcast
6:26 AM 44.6 °F 43.1 °F 44.6 °F 100% 30.11 in 10.0 mi South 3.5 mph - N/A   Overcast
6:55 AM 45.1 °F 43.7 °F 45.1 °F 100% 30.11 in 10.0 mi SE 3.5 mph - N/A   Overcast
7:55 AM 45.3 °F 43.0 °F 45.3 °F 100% 30.13 in 10.0 mi SSE 4.6 mph - N/A   Overcast
8:33 AM 44.6 °F 41.4 °F 44.6 °F 100% 30.14 in 10.0 mi South 5.8 mph - N/A   Overcast
8:55 AM 45.1 °F 42.0 °F 45.1 °F 100% 30.14 in 10.0 mi South 5.8 mph - N/A   Overcast
9:24 AM 46.4 °F 43.5 °F 46.4 °F 100% 30.14 in 10.0 mi South 5.8 mph - N/A   Overcast
9:55 AM 46.2 °F 43.3 °F 46.2 °F 100% 30.14 in 10.0 mi SE 5.8 mph - N/A   Overcast
10:25 AM 46.4 °F - 46.4 °F 100% 30.14 in 10.0 mi Calm Calm - N/A   Overcast
10:41 AM 48.2 °F - 48.2 °F 100% 30.14 in 10.0 mi Calm Calm - N/A   Overcast
10:52 AM 48.2 °F - 48.2 °F 100% 30.14 in 10.0 mi SSE 5.8 mph - N/A   Overcast
10:53 AM 48.2 °F - 48.2 °F 100% 30.14 in 10.0 mi SSE 4.6 mph - N/A   Overcast
10:55 AM 48.6 °F - 48.6 °F 100% 30.14 in 10.0 mi Variable 4.6 mph - N/A   Overcast
11:29 AM 50.0 °F - 50.0 °F 100% 30.14 in 10.0 mi Variable 6.9 mph - N/A   Overcast
11:55 AM 51.4 °F - 51.4 °F 100% 30.14 in 10.0 mi South 5.8 mph - N/A   Overcast
12:55 PM 52.9 °F - 49.8 °F 89% 30.12 in 10.0 mi South 6.9 mph - N/A   Overcast
1:05 PM 53.6 °F - 50.0 °F 88% 30.12 in 10.0 mi South 6.9 mph - N/A   Overcast
1:55 PM 53.6 °F - 48.0 °F 81% 30.12 in 10.0 mi SSE 8.1 mph - N/A   Mostly Cloudy
2:31 PM 55.4 °F - 46.4 °F 72% 30.10 in 2.5 mi SSE 4.6 mph - N/A   Haze
2:37 PM 55.4 °F - 46.4 °F 72% 30.09 in 3.0 mi South 4.6 mph - N/A   Haze
2:55 PM 54.5 °F - 46.8 °F 75% 30.09 in 10.0 mi NE 8.1 mph - N/A   Overcast
2:56 PM 55.4 °F - 46.4 °F 72% 30.09 in 3.0 mi NE 8.1 mph - N/A   Haze
3:05 PM 55.4 °F - 46.4 °F 72% 30.07 in 10.0 mi NE 9.2 mph - N/A   Overcast
3:55 PM 53.4 °F - 53.4 °F 100% 30.09 in 10.0 mi NNE 10.4 mph - N/A   Overcast
3:56 PM 53.6 °F - 53.6 °F 100% 30.09 in 10.0 mi NNE 10.4 mph - N/A   Overcast
4:01 PM 53.6 °F - 53.6 °F 100% 30.09 in 10.0 mi NE 8.1 mph - N/A   Overcast
4:55 PM 52.2 °F - 52.2 °F 100% 30.09 in 10.0 mi NE 8.1 mph - N/A   Scattered Clouds
5:55 PM 48.9 °F - 48.9 °F 100% 30.09 in 10.0 mi NNE 8.1 mph - N/A   Clear
6:55 PM 47.3 °F - 47.3 °F 100% 30.09 in 10.0 mi NNE 8.1 mph - N/A   Scattered Clouds
7:55 PM 45.7 °F 42.0 °F 45.7 °F 100% 30.08 in 10.0 mi NNE 6.9 mph - N/A   Clear
8:55 PM 45.1 °F 42.0 °F 45.1 °F 100% 30.08 in 10.0 mi NNE 5.8 mph - N/A   Overcast
9:55 PM 45.0 °F 40.6 °F 44.8 °F 99% 30.08 in 10.0 mi NE 8.1 mph - N/A   Overcast
10:55 PM 44.4 °F 40.5 °F 44.4 °F 100% 30.07 in 10.0 mi NE 6.9 mph - N/A   Mostly Cloudy
11:55 PM 44.2 °F 39.7 °F 44.2 °F 100% 30.06 in 10.0 mi NE 8.1 mph - N/A   Mostly Cloudy